User: anonymous   Login
Location: York
(31.8935°S, 116.7682°E)
Time: 02:22:11
(UTC+08:00)
Language:

Tiangong - Orbit

View from above orbital plane
View from above orbital plane
View from above satellite
View from above satellite

Ground track
Ground track

The orbit data is extracted from the following two-line orbital elements,

1 48274U 21035A   22027.33497030  .00018233  00000-0  21307-3 0  9991
2 48274  41.4705 357.1682 0004109 190.0666 320.9311 15.61154235 42741
Epoch (UTC): 27 January 2022 08:02:21
Eccentricity: 0.0004109
inclination: 41.4705°
perigee height: 381 km
apogee height: 387 km
right ascension of ascending node: 357.1682°
argument of perigee: 190.0666°
revolutions per day: 15.61154235
mean anomaly at epoch: 320.9311°
orbit number at epoch: 4274

The dashed part of the orbit path shows where the satellite is in the earth's shadow,  

DLR